Time,TemperatureF,DewpointF,PressureIn,WindDirection,WindDirectionDegrees,WindSpeedMPH,WindSpeedGustMPH,Humidity,HourlyPrecipIn,Conditions,Clouds,dailyrainin,SolarRadiationWatts/m^2,SoftwareType,DateUTC
2013-10-06 00:10:00,43.4,28.0,30.12,WNW,293,13.0,24.0,56,0.00,,,0.00,0,weatherlink.com 1.10,2013-10-06 05:10:00,
2013-10-06 00:25:00,42.7,28.0,30.11,WNW,284,15.0,19.0,57,0.00,,,0.00,0,weatherlink.com 1.10,2013-10-06 05:25:00,
2013-10-06 00:40:00,42.2,28.0,30.10,WSW,254,15.0,18.0,58,0.00,,,0.00,0,weatherlink.com 1.10,2013-10-06 05:40:00,
2013-10-06 00:55:00,42.0,28.0,30.10,West,267,9.0,21.0,59,0.00,,,0.00,0,weatherlink.com 1.10,2013-10-06 05:55:00,
2013-10-06 01:10:00,41.8,28.0,30.10,West,277,9.0,19.0,59,0.00,,,0.00,0,weatherlink.com 1.10,2013-10-06 06:10:00,
2013-10-06 01:25:00,41.8,29.0,30.10,WNW,285,12.0,20.0,60,0.00,,,0.00,0,weatherlink.com 1.10,2013-10-06 06:25:00,
2013-10-06 01:40:00,42.2,29.0,30.10,West,275,12.0,23.0,59,0.00,,,0.00,0,weatherlink.com 1.10,2013-10-06 06:40:00,
2013-10-06 01:55:00,42.3,28.0,30.11,West,277,10.0,23.0,58,0.00,,,0.00,0,weatherlink.com 1.10,2013-10-06 06:55:00,
2013-10-06 02:10:00,42.0,28.0,30.11,West,280,7.0,24.0,59,0.00,,,0.00,0,weatherlink.com 1.10,2013-10-06 07:10:00,
2013-10-06 02:25:00,41.7,28.0,30.12,West,275,8.0,20.0,59,0.00,,,0.00,0,weatherlink.com 1.10,2013-10-06 07:25:00,
2013-10-06 02:40:00,41.3,28.0,30.12,West,266,12.0,20.0,60,0.00,,,0.00,0,weatherlink.com 1.10,2013-10-06 07:40:00,
2013-10-06 02:55:00,41.1,28.0,30.11,West,261,10.0,18.0,61,0.00,,,0.00,0,weatherlink.com 1.10,2013-10-06 07:55:00,
2013-10-06 03:10:00,41.0,28.0,30.11,WNW,282,8.0,21.0,61,0.00,,,0.00,0,weatherlink.com 1.10,2013-10-06 08:10:00,
2013-10-06 03:25:00,40.9,28.0,30.11,West,268,11.0,18.0,61,0.00,,,0.00,0,weatherlink.com 1.10,2013-10-06 08:25:00,
2013-10-06 03:40:00,40.9,28.0,30.12,WNW,288,12.0,19.0,61,0.00,,,0.00,0,weatherlink.com 1.10,2013-10-06 08:40:00,
2013-10-06 03:55:00,40.6,28.0,30.12,WNW,284,7.0,20.0,62,0.00,,,0.00,0,weatherlink.com 1.10,2013-10-06 08:55:00,
2013-10-06 04:10:00,40.6,29.0,30.11,West,263,15.0,21.0,63,0.00,,,0.00,0,weatherlink.com 1.10,2013-10-06 09:10:00,
2013-10-06 04:25:00,40.9,29.0,30.11,WNW,282,12.0,23.0,62,0.00,,,0.00,0,weatherlink.com 1.10,2013-10-06 09:25:00,
2013-10-06 04:40:00,40.8,29.0,30.11,West,279,13.0,20.0,63,0.00,,,0.00,0,weatherlink.com 1.10,2013-10-06 09:40:00,
2013-10-06 04:55:00,40.2,29.0,30.11,West,273,11.0,18.0,64,0.00,,,0.00,0,weatherlink.com 1.10,2013-10-06 09:55:00,
2013-10-06 05:11:00,39.7,29.0,30.11,WNW,288,8.0,18.0,65,0.00,,,0.00,0,weatherlink.com 1.10,2013-10-06 10:11:00,
2013-10-06 05:26:00,39.9,29.0,30.11,WNW,285,7.0,17.0,65,0.00,,,0.00,0,weatherlink.com 1.10,2013-10-06 10:26:00,
2013-10-06 05:41:00,40.6,30.0,30.11,WNW,302,12.0,17.0,65,0.00,,,0.00,0,weatherlink.com 1.10,2013-10-06 10:41:00,
2013-10-06 05:56:00,41.3,29.0,30.11,WNW,291,10.0,19.0,63,0.00,,,0.00,0,weatherlink.com 1.10,2013-10-06 10:56:00,
2013-10-06 06:11:00,41.6,30.0,30.11,WNW,292,9.0,18.0,63,0.00,,,0.00,0,weatherlink.com 1.10,2013-10-06 11:11:00,
2013-10-06 06:26:00,41.6,30.0,30.11,WNW,301,12.0,20.0,64,0.00,,,0.00,0,weatherlink.com 1.10,2013-10-06 11:26:00,
2013-10-06 06:41:00,40.9,30.0,30.11,West,279,10.0,17.0,65,0.00,,,0.00,0,weatherlink.com 1.10,2013-10-06 11:41:00,
2013-10-06 06:56:00,40.7,30.0,30.11,WNW,296,10.0,19.0,65,0.00,,,0.00,0,weatherlink.com 1.10,2013-10-06 11:56:00,
2013-10-06 07:11:00,40.7,30.0,30.11,WNW,302,8.0,17.0,66,0.00,,,0.00,0,weatherlink.com 1.10,2013-10-06 12:11:00,
2013-10-06 07:26:00,40.8,30.0,30.10,WNW,288,9.0,17.0,66,0.00,,,0.00,0,weatherlink.com 1.10,2013-10-06 12:26:00,
2013-10-06 07:41:00,41.1,30.0,30.10,WNW,290,20.0,20.0,66,0.00,,,0.00,0,weatherlink.com 1.10,2013-10-06 12:41:00,
2013-10-06 07:56:00,41.5,30.0,30.10,WNW,301,15.0,19.0,65,0.00,,,0.00,9,weatherlink.com 1.10,2013-10-06 12:56:00,
2013-10-06 08:11:00,41.4,31.0,30.11,WNW,292,10.0,16.0,66,0.00,,,0.00,21,weatherlink.com 1.10,2013-10-06 13:11:00,
2013-10-06 08:26:00,42.2,31.0,30.11,NW,305,10.0,20.0,66,0.00,,,0.00,56,weatherlink.com 1.10,2013-10-06 13:26:00,
2013-10-06 08:41:00,43.3,32.0,30.11,NW,310,9.0,18.0,65,0.00,,,0.00,107,weatherlink.com 1.10,2013-10-06 13:41:00,
2013-10-06 08:56:00,44.7,33.0,30.11,NW,307,7.0,21.0,64,0.00,,,0.00,167,weatherlink.com 1.10,2013-10-06 13:56:00,
2013-10-06 09:11:00,46.2,33.0,30.11,NW,309,14.0,22.0,61,0.00,,,0.00,220,weatherlink.com 1.10,2013-10-06 14:11:00,
2013-10-06 09:26:00,47.9,34.0,30.11,NW,304,14.0,23.0,58,0.00,,,0.00,265,weatherlink.com 1.10,2013-10-06 14:26:00,
2013-10-06 09:41:00,50.0,34.0,30.11,West,277,10.0,18.0,55,0.00,,,0.00,311,weatherlink.com 1.10,2013-10-06 14:41:00,
2013-10-06 09:56:00,52.5,35.0,30.11,NW,306,8.0,19.0,51,0.00,,,0.00,355,weatherlink.com 1.10,2013-10-06 14:56:00,
2013-10-06 10:11:00,53.9,35.0,30.11,NW,321,10.0,24.0,49,0.00,,,0.00,397,weatherlink.com 1.10,2013-10-06 15:11:00,
2013-10-06 10:26:00,55.6,35.0,30.11,WNW,302,1.0,24.0,47,0.00,,,0.00,439,weatherlink.com 1.10,2013-10-06 15:26:00,
2013-10-06 10:41:00,56.4,35.0,30.11,West,262,6.0,19.0,45,0.00,,,0.00,478,weatherlink.com 1.10,2013-10-06 15:41:00,
2013-10-06 10:57:00,57.5,35.0,30.11,NNW,329,16.0,20.0,43,0.00,,,0.00,517,weatherlink.com 1.10,2013-10-06 15:57:00,
2013-10-06 11:12:00,58.5,35.0,30.12,WNW,285,9.0,20.0,41,0.00,,,0.00,548,weatherlink.com 1.10,2013-10-06 16:12:00,
2013-10-06 11:27:00,60.0,35.0,30.11,NW,318,17.0,22.0,40,0.00,,,0.00,578,weatherlink.com 1.10,2013-10-06 16:27:00,
2013-10-06 11:42:00,60.8,35.0,30.11,NW,312,4.0,23.0,38,0.00,,,0.00,608,weatherlink.com 1.10,2013-10-06 16:42:00,
2013-10-06 11:57:00,62.2,35.0,30.12,WNW,292,11.0,19.0,37,0.00,,,0.00,629,weatherlink.com 1.10,2013-10-06 16:57:00,
2013-10-06 12:12:00,62.8,36.0,30.12,NNW,342,7.0,23.0,37,0.00,,,0.00,649,weatherlink.com 1.10,2013-10-06 17:12:00,
2013-10-06 12:27:00,63.7,36.0,30.12,NW,314,1.0,22.0,36,0.00,,,0.00,668,weatherlink.com 1.10,2013-10-06 17:27:00,
2013-10-06 12:42:00,64.5,37.0,30.12,NNW,328,4.0,18.0,37,0.00,,,0.00,682,weatherlink.com 1.10,2013-10-06 17:42:00,
2013-10-06 12:57:00,64.9,37.0,30.12,WNW,294,10.0,16.0,36,0.00,,,0.00,691,weatherlink.com 1.10,2013-10-06 17:57:00,
2013-10-06 13:12:00,65.4,37.0,30.12,NNE,19,3.0,17.0,35,0.00,,,0.00,700,weatherlink.com 1.10,2013-10-06 18:12:00,
2013-10-06 13:27:00,66.1,37.0,30.11,NW,325,0.0,17.0,34,0.00,,,0.00,705,weatherlink.com 1.10,2013-10-06 18:27:00,
2013-10-06 13:42:00,66.8,37.0,30.10,NW,317,10.0,18.0,33,0.00,,,0.00,707,weatherlink.com 1.10,2013-10-06 18:42:00,
2013-10-06 13:57:00,67.2,38.0,30.09,NNW,327,14.0,16.0,34,0.00,,,0.00,701,weatherlink.com 1.10,2013-10-06 18:57:00,
2013-10-06 14:12:00,67.3,38.0,30.08,West,273,5.0,19.0,34,0.00,,,0.00,694,weatherlink.com 1.10,2013-10-06 19:12:00,
2013-10-06 14:27:00,68.8,38.0,30.08,WNW,292,16.0,16.0,32,0.00,,,0.00,687,weatherlink.com 1.10,2013-10-06 19:27:00,
2013-10-06 14:42:00,68.8,38.0,30.07,NNW,339,13.0,15.0,32,0.00,,,0.00,679,weatherlink.com 1.10,2013-10-06 19:42:00,
2013-10-06 14:57:00,68.6,37.0,30.07,NW,315,3.0,20.0,31,0.00,,,0.00,613,weatherlink.com 1.10,2013-10-06 19:57:00,
2013-10-06 15:12:00,69.7,37.0,30.07,NW,311,15.0,20.0,30,0.00,,,0.00,636,weatherlink.com 1.10,2013-10-06 20:12:00,
2013-10-06 15:27:00,69.7,38.0,30.07,NNW,332,2.0,17.0,31,0.00,,,0.00,615,weatherlink.com 1.10,2013-10-06 20:27:00,
2013-10-06 15:42:00,69.7,38.0,30.06,WNW,294,0.0,16.0,32,0.00,,,0.00,592,weatherlink.com 1.10,2013-10-06 20:42:00,
2013-10-06 15:57:00,69.7,38.0,30.06,North,360,1.0,16.0,32,0.00,,,0.00,471,weatherlink.com 1.10,2013-10-06 20:57:00,
2013-10-06 16:12:00,69.5,39.0,30.06,NW,307,3.0,14.0,33,0.00,,,0.00,515,weatherlink.com 1.10,2013-10-06 21:12:00,
2013-10-06 16:27:00,70.0,39.0,30.07,North,355,0.0,22.0,32,0.00,,,0.00,471,weatherlink.com 1.10,2013-10-06 21:27:00,
2013-10-06 16:42:00,70.1,38.0,30.06,WNW,286,0.0,14.0,31,0.00,,,0.00,434,weatherlink.com 1.10,2013-10-06 21:42:00,
2013-10-06 16:57:00,69.6,38.0,30.06,West,275,0.0,19.0,32,0.00,,,0.00,394,weatherlink.com 1.10,2013-10-06 21:57:00,
2013-10-06 17:12:00,69.3,38.0,30.06,WNW,291,10.0,15.0,32,0.00,,,0.00,350,weatherlink.com 1.10,2013-10-06 22:12:00,
2013-10-06 17:28:00,69.1,38.0,30.06,NW,319,0.0,14.0,32,0.00,,,0.00,306,weatherlink.com 1.10,2013-10-06 22:28:00,
2013-10-06 17:43:00,68.6,37.0,30.07,WSW,240,1.0,15.0,32,0.00,,,0.00,258,weatherlink.com 1.10,2013-10-06 22:43:00,
2013-10-06 17:58:00,68.6,38.0,30.07,NW,308,10.0,10.0,33,0.00,,,0.00,204,weatherlink.com 1.10,2013-10-06 22:58:00,
2013-10-06 18:13:00,67.8,38.0,30.07,NNW,332,1.0,14.0,33,0.00,,,0.00,148,weatherlink.com 1.10,2013-10-06 23:13:00,
2013-10-06 18:28:00,66.9,38.0,30.07,NW,323,2.0,12.0,34,0.00,,,0.00,95,weatherlink.com 1.10,2013-10-06 23:28:00,
2013-10-06 18:43:00,65.9,38.0,30.07,NW,325,7.0,13.0,36,0.00,,,0.00,47,weatherlink.com 1.10,2013-10-06 23:43:00,
2013-10-06 18:58:00,64.5,37.0,30.07,NW,304,1.0,11.0,37,0.00,,,0.00,16,weatherlink.com 1.10,2013-10-06 23:58:00,
2013-10-06 19:13:00,62.7,37.0,30.08,WNW,302,0.0,8.0,39,0.00,,,0.00,7,weatherlink.com 1.10,2013-10-07 00:13:00,
2013-10-06 19:28:00,60.4,38.0,30.09,NW,309,0.0,1.0,43,0.00,,,0.00,0,weatherlink.com 1.10,2013-10-07 00:28:00,
2013-10-06 19:43:00,58.4,37.0,30.09,NW,321,0.0,0.0,46,0.00,,,0.00,0,weatherlink.com 1.10,2013-10-07 00:43:00,
2013-10-06 19:58:00,56.9,38.0,30.09,NW,317,0.0,2.0,49,0.00,,,0.00,0,weatherlink.com 1.10,2013-10-07 00:58:00,
2013-10-06 20:13:00,55.4,37.0,30.10,NW,312,0.0,0.0,51,0.00,,,0.00,0,weatherlink.com 1.10,2013-10-07 01:13:00,
2013-10-06 20:28:00,54.8,37.0,30.10,NW,312,0.0,0.0,52,0.00,,,0.00,0,weatherlink.com 1.10,2013-10-07 01:28:00,
2013-10-06 20:43:00,53.6,37.0,30.10,NW,313,0.0,0.0,54,0.00,,,0.00,0,weatherlink.com 1.10,2013-10-07 01:43:00,
2013-10-06 20:58:00,52.1,37.0,30.11,NW,319,0.0,0.0,57,0.00,,,0.00,0,weatherlink.com 1.10,2013-10-07 01:58:00,
2013-10-06 21:13:00,51.8,37.0,30.11,NW,321,0.0,0.0,58,0.00,,,0.00,0,weatherlink.com 1.10,2013-10-07 02:13:00,
2013-10-06 21:28:00,50.8,37.0,30.11,NW,322,0.0,0.0,59,0.00,,,0.00,0,weatherlink.com 1.10,2013-10-07 02:28:00,
2013-10-06 21:43:00,49.6,37.0,30.11,NW,322,0.0,0.0,62,0.00,,,0.00,0,weatherlink.com 1.10,2013-10-07 02:43:00,
2013-10-06 21:58:00,48.6,37.0,30.12,NW,321,0.0,0.0,64,0.00,,,0.00,0,weatherlink.com 1.10,2013-10-07 02:58:00,
2013-10-06 22:13:00,47.6,37.0,30.12,NW,321,0.0,0.0,66,0.00,,,0.00,0,weatherlink.com 1.10,2013-10-07 03:13:00,
2013-10-06 22:28:00,48.4,37.0,30.12,NW,315,0.0,0.0,65,0.00,,,0.00,0,weatherlink.com 1.10,2013-10-07 03:28:00,
2013-10-06 22:43:00,47.7,37.0,30.12,WNW,298,0.0,0.0,66,0.00,,,0.00,0,weatherlink.com 1.10,2013-10-07 03:43:00,
2013-10-06 22:58:00,47.5,37.0,30.12,WNW,289,0.0,0.0,68,0.00,,,0.00,0,weatherlink.com 1.10,2013-10-07 03:58:00,
2013-10-06 23:13:00,48.1,38.0,30.12,West,266,0.0,0.0,67,0.00,,,0.00,0,weatherlink.com 1.10,2013-10-07 04:13:00,
2013-10-06 23:28:00,48.1,38.0,30.12,West,279,0.0,0.0,67,0.00,,,0.00,0,weatherlink.com 1.10,2013-10-07 04:28:00,
2013-10-06 23:43:00,48.4,38.0,30.12,West,271,0.0,3.0,67,0.00,,,0.00,0,weatherlink.com 1.10,2013-10-07 04:43:00,
2013-10-06 23:58:00,47.9,38.0,30.12,West,276,0.0,2.0,68,0.00,,,0.00,0,weatherlink.com 1.10,2013-10-07 04:58:00,